Regional Weather Roundup
Issued by NWS

Current Version |  Previous Version |  Text Only |  Print | Product List |  Glossary On
Versions: 1 2 3 4 5 6 7 8 9 10 11 12 13 14 15 16 17 18 19 20 21 22 23 24 25 26 27 28
894
ASUS45 KBOI 280510
RWRID

IDAHO REGIONAL WEATHER ROUNDUP
NATIONAL WEATHER SERVICE BOISE ID
1100 PM MDT MON MAY 27 2024

NOTE: "FAIR" INDICATES FEW OR NO CLOUDS BELOW 12000 FEET
WITH NO SIGNIFICANT WEATHER AND/OR OBSTRUCTIONS TO VISIBILITY

IDZ012-014-280600-
SOUTHWEST IDAHO


CITY           SKY/WX    TMP DP  RH WIND       PRES   REMARKS
BOISE          CLEAR     67  38  34 SE5       29.99S
CALDWELL       CLEAR     67  41  38 NE6       29.98R
MOUNTAIN HOME  CLEAR     62  38  41 E7        29.98R
$$

IDZ016-017-280600-
SOUTHCENTRAL IDAHO


CITY           SKY/WX    TMP DP  RH WIND       PRES   REMARKS
BURLEY         CLEAR     56  44  64 E3        30.10R
JEROME         CLEAR     62  33  33 E10       30.10R
TWIN FALLS     CLEAR     52  38  58 S13       30.10R
$$

IDZ019>023-280600-
SOUTHEAST IDAHO


CITY           SKY/WX    TMP DP  RH WIND       PRES   REMARKS
IDAHO FALLS    CLEAR     54  36  50 E3        30.18R
POCATELLO      CLEAR     54  38  54 E3        30.15S
REXBURG        CLEAR     55  38  52 CALM      30.19R
$$

IDZ006-010-011-018-031-032-280600-
CENTRAL IDAHO MOUNTAINS


CITY           SKY/WX    TMP DP  RH WIND       PRES   REMARKS
MCCALL         CLEAR     55  38  52 N5        30.11S
HAILEY         CLEAR     54  36  50 NW7       30.20R
STANLEY          N/A     44  33  65 S5        30.24R
SALMON         CLEAR     56  40  55 CALM      30.11R
CHALLIS        PTCLDY    56  32  40 NW5       30.13R
$$

IDZ002-004-006-007-026-280600-
NORTHERN IDAHO


CITY           SKY/WX    TMP DP  RH WIND       PRES   REMARKS
LEWISTON       PTCLDY    69  48  47 S3        29.97S
LOWELL           N/A     57  50  77 CALM      30.03R
COEUR D`ALENE    N/A     59  48  67 SE5       30.05S
MULLAN PASS    PTCLDY    51  32  48 SE3       30.19F
$$